Miscellaneous Local Product
Issued by NWS Hastings, NE

Home | Current Version | Previous Version | Text Only | Print | Product List | Glossary Off
Versions: 1 2 3 4 5 6 7 8 9 10 11 12 13 14 15 16 17 18 19 20 21 22 23 24 25 26 27 28 29 30 31 32 33 34 35 36 37 38 39 40 41 42 43 44 45 46 47 48 49 50

000
AXUS43 KGID 250002
MISGRI

GID CWA HOURLY WEATHER ROUNDUP
NATIONAL WEATHER SERVICE HASTINGS NE
600 PM CST SAT FEB 24 2018

NOTE: "FAIR" INDICATES FEW OR NO CLOUDS BELOW 12,000 FEET WITH NO
SIGNIFICANT WEATHER AND/OR OBSTRUCTIONS TO VISIBILITY.

...SOUTH CENTRAL NEBRASKA...

CITY           SKY/WX    TMP DP  RH WIND       PRES   REMARKS
GRAND ISLAND   CLEAR     35  23  61 W22G31    29.71R WCI  23
KEARNEY        CLEAR     34  19  54 W21G31    29.75R WCI  22
HASTINGS       CLEAR     35  22  58 W24G33    29.73R WCI  23
ORD            CLEAR     30  21  69 NW23G32   29.69R WCI  17
YORK           CLEAR     30  30 100 CALM      29.70S
AURORA         CLEAR     34  26  74 W16       29.70R WCI  23
LEXINGTON      CLEAR     34  19  55 NW20      29.77R WCI  22
HOLDREGE       CLEAR     35  19  51 NW16G22   29.76R WCI  25
HEBRON         PTCLDY    33  31  91 SW7       29.76R WCI  27

...NEBRASKA PANHANDLE...

CITY           SKY/WX    TMP DP  RH WIND       PRES   REMARKS
CHADRON        CLEAR     23  14  68 W13       29.76R WCI  11
ALLIANCE       CLEAR     25  13  60 NW12      29.74R WCI  14
SCOTTSBLUFF    CLEAR     31  10  41 W22G30    29.75F WCI  18
SIDNEY         CLEAR     30  11  45 NW15G24   29.77S WCI  19

...WESTERN AND NORTH CENTRAL NEBRASKA...

CITY           SKY/WX    TMP DP  RH WIND       PRES   REMARKS
VALENTINE      CLEAR     25  13  60 W16       29.71R WCI  12
AINSWORTH      CLEAR     25  18  77 W16       29.69R WCI  12
ONEILL         CLOUDY    27  23  85 NW23G33   29.67R FOG     WCI  13
BROKEN BOW     CLEAR     30  17  58 W17       29.71R WCI  18
IMPERIAL       CLEAR     33  13  43 NW20G30   29.80R WCI  21
NORTH PLATTE   CLEAR     29  16  58 NW14      29.78R WCI  18
MCCOOK         CLEAR     36  19  50 NW18G26   29.80R WCI  26

...EASTERN NEBRASKA...

CITY           SKY/WX    TMP DP  RH WIND       PRES   REMARKS
NORFOLK        MOCLDY    24  21  88 SW7       29.64R WCI  16
SO SIOUX CITY  LGT SNOW  23  20  88 SW7       29.68S FOG     WCI  15
TEKAMAH        MOCLDY    26  22  84 SW9       29.70R WCI  17
COLUMBUS       CLEAR     27  23  85 SW9       29.69S WCI  18
ALBION         CLEAR     32  24  73 W8        29.66R WCI  25
OMAHA EPPLEY   MOCLDY    29  25  85 W12       29.72R WCI  19
OFFUTT AFB     MOCLDY    29  27  89 W9        29.72R WCI  21
MILLARD        CLOUDY    31  27  86 W6        29.72R WCI  25
LINCOLN        PTCLDY    30  26  85 W9        29.73F WCI  22
NEBRASKA CITY  CLOUDY    30  30 100 W10       29.74R WCI  21
BEATRICE       PTCLDY    32  29  89 W10       29.75R WCI  24
FALLS CITY     CLOUDY    32  29  88 W10       29.76R WCI  24

...NORTHERN KANSAS...

CITY           SKY/WX    TMP DP  RH WIND       PRES   REMARKS
GOODLAND       CLEAR     37  10  32 N18       29.80R WCI  27
HILL CITY      CLEAR     41  11  29 NW14G28   29.81R
NORTON         CLEAR     37   9  30 NW16G29   29.80R WCI  28
PHILLIPSBURG   CLEAR     39  10  30 W17G29    29.81R WCI  30
BELOIT         CLEAR     37  30  75 CALM      29.79R
HAYS           CLEAR     43   9  24 NW21G28   29.81R
RUSSELL        CLEAR     44  20  38 NW14      29.80R
CONCORDIA      CLEAR     33  30  88 W8        29.78R WCI  26
SALINA         CLEAR     39  33  79 W7        29.83R WCI  34
TOPEKA         MOCLDY    35  32  88 W12       29.80R WCI  27



USA.gov is the U.S. government's official web portal to all federal, state and local government web resources and services.